This is the latest recevied weather packets stored in our database for station/object EA3KZ-1. If no packets are shown the sender has not sent any weather packets the latest 10 day(s).
| Time | Temp. | Humidity | Pressure | Rain* | Wind** | Luminosity | Snow |
|---|---|---|---|---|---|---|---|
| 1787491556 | 30° C | 61% | 1012.6 hPa | 0 mm | - | - | - |
| 1787490953 | 30.56° C | 59% | 1012.6 hPa | 0 mm | - | - | - |
| 1787490351 | 30.56° C | 60% | 1012.7 hPa | 0 mm | - | - | - |
| 1787489748 | 29.44° C | 62% | 1012.9 hPa | 0 mm | - | - | - |
| 1787489146 | 30° C | 62% | 1013.1 hPa | 0 mm | - | - | - |
| 1787488543 | 29.44° C | 62% | 1013.1 hPa | 0 mm | - | - | - |
| 1787487940 | 29.44° C | 62% | 1013.2 hPa | 0 mm | - | - | - |
| 1787487338 | 28.89° C | 62% | 1013.3 hPa | 0 mm | - | - | - |
| 1787486735 | 29.44° C | 60% | 1013.3 hPa | 0 mm | - | - | - |
| 1787486132 | 28.89° C | 61% | 1013.5 hPa | 0 mm | - | - | - |
| 1787485530 | 29.44° C | 59% | 1013.4 hPa | 0 mm | - | - | - |
| 1787484927 | 30.56° C | 56% | 1013.5 hPa | 0 mm | - | - | - |
| 1787484325 | 30° C | 58% | 1013.5 hPa | 0 mm | - | - | - |
| 1787483722 | 29.44° C | 59% | 1013.6 hPa | 0 mm | - | - | - |
| 1787483119 | 29.44° C | 59% | 1013.7 hPa | 0 mm | - | - | - |
| 1787482517 | 28.89° C | 61% | 1013.8 hPa | 0 mm | - | - | - |
| 1787481975 | 28.33° C | 63% | 1013.9 hPa | 0 mm | - | - | - |
| 1787481372 | 27.78° C | 65% | 1014.1 hPa | 0 mm | - | - | - |
| 1787480769 | 28.33° C | 62% | 1014.1 hPa | 0 mm | - | - | - |
| 1787480167 | 27.78° C | 63% | 1014.2 hPa | 0 mm | - | - | - |
| 1787479564 | 27.78° C | 64% | 1014 hPa | 0 mm | - | - | - |
| 1787478961 | 27.22° C | 66% | 1014.2 hPa | 0 mm | - | - | - |
| 1787478359 | 27.22° C | 67% | 1014.1 hPa | 0 mm | - | - | - |
| 1787477756 | 26.67° C | 68% | 1014 hPa | 0 mm | - | - | - |
| 1787477154 | 26.67° C | 68% | 1014 hPa | 0 mm | - | - | - |
* Rain latest hour (hover to see other rain measurements)
** Current wind speed in m/s (hover to see current wind gust speed)